Location: Sungai Apap
(2.6167°N, 113.3833°E)
Time: 14:46:53
(UTC+00:00)

ARIANE 5 R/B - Pass Details

Date: 25 May 2024
Orbit: 314 x 33314 km, 2.5° (Epoch: 11 June)

Event Time Altitude Azimuth Distance (km) Brightness Sun altitude
Rises 11:15:09 0° 272° (W) 14,100 10.4 -11.1°
Reaches altitude 10° 11:25:49 10° 271° (W) 15,635 10.3 -13.5°
Drops below altitude 10° 17:12:44 10° 270° (W) 34,223 10.6 -63.4°
Enters shadow 19:31:00 10° 267° (W) 14,311 8.5 -38.4°
Exits shadow 20:05:53 54° 235° (SW) 2,188 4.3 -30.7°
Maximum altitude 20:07:49 64° 189° (S) 1,617 3.8 -30.2°
Sets 20:13:43 0° 101° (ESE) 2,778 6.1 -28.9°
